Sandspit, British Columbia

5:07 AM PDT on July 28, 2017 (GMT -0700)
Sandspit

Weather History for CYZP - October, 2013

Change the Weather History Date:

Friday, October 4, 2013

  Actual Average Record
Temperature  
Mean Temperature 54 °F -  
Max Temperature 59 °F 52 °F 62 °F (2014)
Min Temperature 50 °F 42 °F 42 °F (1998)
Degree Days  
Heating Degree Days 10    
Growing Degree Days 4 (Base 50)    
Moisture  
Dew Point 49 °F    
Average Humidity 84    
Maximum Humidity 94    
Minimum Humidity 60    
Precipitation  
Precipitation 0.02 in 0.26 in - ()
Sea Level Pressure  
Sea Level Pressure 29.96 in    
Wind  
Wind Speed 10 mph ()    
Max Wind Speed 23 mph    
Max Gust Speed 25 mph    
Visibility 8.3 miles    
Events Rain    
Averages and records for this station are not official NWS values.
T = Trace of Precipitation, MM = Missing Value Source: Averaged Metar Reports

Daily Weather History Graph

Daily Weather History Graph

Search for Another Location

Airport or City:

Trip Planner

Search our weather history database for the weather conditions in past years. The results will help you decide how hot, cold, wet, or windy it might be!

Date:

Astronomy

Oct. 04, 2013 Rise Set
Actual Time 7:54 AM PDT 7:15 PM PDT
Civil Twilight 7:20 AM PDT 7:50 PM PDT
Nautical Twilight 6:39 AM PDT 8:30 PM PDT
Astronomical Twilight 5:58 AM PDT 9:11 PM PDT
Moon 7:40 AM PDT (10/4) 6:56 PM PDT (10/4)
Length of Visible Light 12h 30m
Length of Day
11h 20m
Waning Crescent, 0% of the Moon is Illuminated
Oct 4
Waning Crescent
Oct 4
New
Oct 11
First Quarter
Oct 18
Full
Oct 26
Last Quarter

Hourly Weather History & Observations

Time (PDT) Temp. Dew Point Humidity Pressure Visibility Wind Dir Wind Speed Gust Speed Precip Events Conditions
12:00 AM 53.6 °F 51.8 °F 94% 29.93 in 8.0 mi SSE 23.0 mph - N/A   Overcast
12:09 AM 53.6 °F 51.8 °F 94% 29.93 in 8.0 mi SSE 21.9 mph - N/A Rain Light Rain
12:24 AM 53.6 °F 51.8 °F 94% 29.93 in 8.0 mi SSE 19.6 mph 25.3 mph N/A   Overcast
1:00 AM 53.6 °F 51.8 °F 94% 29.93 in 7.0 mi SSE 17.3 mph 23.0 mph N/A   Overcast
1:02 AM 53.6 °F 51.8 °F 94% 29.93 in 7.0 mi SSE 16.1 mph 23.0 mph N/A Rain Light Rain
1:13 AM 53.6 °F 51.8 °F 94% 29.93 in 7.0 mi SSE 17.3 mph - N/A   Mostly Cloudy
1:39 AM 53.6 °F 51.8 °F 94% 29.94 in 5.0 mi SE 10.4 mph - N/A   Partly Cloudy
1:47 AM 53.6 °F 51.8 °F 94% 29.94 in 6.0 mi SSE 11.5 mph 18.4 mph N/A   Scattered Clouds
1:56 AM 53.6 °F 51.8 °F 94% 29.95 in 5.0 mi SSE 6.9 mph - N/A   Scattered Clouds
2:00 AM 54 °F 52 °F 91% 29.94 in - SSE 3.5 mph - -  
2:00 AM 53.6 °F 51.8 °F 94% 29.95 in 4.0 mi SSE 6.9 mph - N/A   Mostly Cloudy
2:24 AM 53.6 °F 51.8 °F 94% 29.96 in 6.0 mi SE 8.1 mph - N/A   Mostly Cloudy
3:00 AM 55.4 °F 51.8 °F 88% 29.96 in 9.0 mi SSE 5.8 mph - N/A   Overcast
4:00 AM 55.4 °F 50.0 °F 82% 29.96 in 9.0 mi Variable 2.3 mph - N/A   Mostly Cloudy
4:44 AM 53.6 °F 48.2 °F 82% 29.95 in 9.0 mi SSE 5.8 mph - N/A Rain Light Rain
4:59 AM 51.8 °F 48.2 °F 88% 29.95 in 9.0 mi SE 5.8 mph - N/A   Overcast
5:00 AM 51 °F 49 °F 89% 29.94 in - SSE 2.3 mph - -  
5:00 AM 51.8 °F 48.2 °F 88% 29.95 in 9.0 mi SE 5.8 mph - N/A   Overcast
6:00 AM 53.6 °F 48.2 °F 82% 29.94 in 9.0 mi SE 8.1 mph - N/A   Overcast
6:38 AM 53.6 °F 48.2 °F 82% 29.94 in 9.0 mi South 9.2 mph - N/A Rain Light Rain
6:56 AM 53.6 °F 48.2 °F 82% 29.94 in 9.0 mi South 6.9 mph - N/A   Overcast
6:57 AM 51.8 °F 48.2 °F 88% 29.94 in 9.0 mi South 8.1 mph - N/A Rain Light Rain
7:00 AM 51.8 °F 48.2 °F 88% 29.94 in 9.0 mi South 6.9 mph - N/A Rain Light Rain
8:00 AM 52 °F 49 °F 86% 29.93 in - SSW 3.5 mph - -  
8:00 AM 51.8 °F 50.0 °F 94% 29.94 in 9.0 mi SSW 6.9 mph - N/A Rain Light Rain
8:19 AM 51.8 °F 50.0 °F 94% 29.92 in 9.0 mi SW 5.8 mph - N/A   Overcast
8:27 AM 53.6 °F 50.0 °F 88% 29.92 in 9.0 mi SSW 6.9 mph - N/A Rain Light Rain
9:00 AM 51.8 °F 48.2 °F 88% 29.91 in 9.0 mi WSW 10.4 mph - N/A Rain Light Rain
9:03 AM 51.8 °F 48.2 °F 88% 29.91 in 9.0 mi SW 10.4 mph - N/A   Overcast
10:00 AM 53.6 °F 48.2 °F 82% 29.91 in 9.0 mi WSW 10.4 mph - N/A   Scattered Clouds
11:00 AM 53 °F 48 °F 79% 29.92 in - WSW 3.5 mph - -  
11:00 AM 53.6 °F 48.2 °F 82% 29.92 in 9.0 mi WSW 9.2 mph - N/A   Overcast
12:00 PM 55.4 °F 50.0 °F 82% 29.92 in 9.0 mi West 4.6 mph - N/A   Mostly Cloudy
1:00 PM 55.4 °F 50.0 °F 82% 29.93 in 9.0 mi South 8.1 mph - N/A   Overcast
2:00 PM 57 °F 51 °F 74% 29.92 in - SE 5.8 mph - -  
2:00 PM 57.2 °F 51.8 °F 82% 29.93 in 9.0 mi SE 8.1 mph - N/A   Mostly Cloudy
3:00 PM 57.2 °F 50.0 °F 77% 29.94 in 9.0 mi Calm Calm - N/A   Overcast
3:08 PM 59.0 °F 48.2 °F 67% 29.94 in 9.0 mi Variable 13.8 mph 20.7 mph N/A   Overcast
4:00 PM 57.2 °F 46.4 °F 67% 29.96 in 9.0 mi SW 8.1 mph 17.3 mph N/A   Overcast
5:00 PM 56 °F 46 °F 60% 29.95 in - SSE 1.2 mph - -  
5:00 PM 57.2 °F 46.4 °F 67% 29.96 in 9.0 mi Calm Calm - N/A   Overcast
5:54 PM 55.4 °F 46.4 °F 72% 29.97 in 9.0 mi South 12.7 mph - N/A   Overcast
6:00 PM 55.4 °F 46.4 °F 72% 29.97 in 9.0 mi South 11.5 mph - N/A   Overcast
7:00 PM 53.6 °F 44.6 °F 72% 29.98 in 9.0 mi South 12.7 mph 18.4 mph N/A   Mostly Cloudy
8:00 PM 54 °F 45 °F 63% 29.99 in - South 5.8 mph - -  
8:00 PM 53.6 °F 44.6 °F 72% 29.99 in 9.0 mi South 9.2 mph - N/A   Mostly Cloudy
9:00 PM 51.8 °F 46.4 °F 82% 30.01 in 9.0 mi SSE 6.9 mph - N/A   Mostly Cloudy
9:37 PM 53.6 °F 44.6 °F 72% 30.01 in 9.0 mi South 8.1 mph - N/A Rain Light Rain
9:56 PM 53.6 °F 44.6 °F 72% 30.02 in 9.0 mi South 9.2 mph - N/A   Overcast
10:00 PM 53.6 °F 44.6 °F 72% 30.02 in 9.0 mi South 9.2 mph - N/A   Overcast
10:04 PM 53.6 °F 44.6 °F 72% 30.02 in 9.0 mi South 11.5 mph - N/A Rain Light Rain
10:16 PM 53.6 °F 46.4 °F 77% 30.03 in 5.0 mi SSW 8.1 mph 17.3 mph N/A Rain Light Rain
10:29 PM 50.0 °F 46.4 °F 87% 30.03 in 6.0 mi SSE 9.2 mph - N/A Rain Light Rain
10:37 PM 50.0 °F 46.4 °F 87% 30.03 in 9.0 mi SSE 8.1 mph - N/A   Overcast
10:57 PM 50.0 °F 48.2 °F 94% 30.04 in 9.0 mi SSE 8.1 mph - N/A Rain Light Rain
11:00 PM 50 °F 47 °F 87% 30.03 in - South 3.5 mph - -  
11:00 PM 50.0 °F 48.2 °F 94% 30.04 in 9.0 mi South 5.8 mph - N/A Rain Light Rain
11:23 PM 50.0 °F 48.2 °F 94% 30.03 in 9.0 mi SSE 9.2 mph - N/A   Overcast